Tracking 19245 objects as of 18-Aug-2018
HD Live streaming from Space Station
objects crossing your sky now

NOAA 16 DEB

Track NOAA 16 DEB now!
10-day predictions


NORAD ID: 41151
Int'l Code: 2000-055CJ
Perigee: 854.5 km
Apogee: 968.8 km
Inclination: 98.9 °
Period: 103.1 minutes
Semi major axis: 7282 km
RCS: Unknown
Launch date: September 21, 2000
Source: United States (US)
Launch site: AIR FORCE WESTERN TEST RANGE (AFWTR)

Note: This is SATELLITE DEBRIS
aabbcc
Your satellite tracking list
Your tracking list is empty




NASA's NSSDC Master Catalog

Two Line Element Set (TLE):
1 41151U 00055CJ  18228.94079985  .00000148  00000-0  13337-3 0  9997
2 41151  98.8857 277.3181 0078496  49.0490 311.7432 13.96908049138280
Source of the keplerian elements: AFSPC